Regional Weather Roundup
Issued by NWS

Home | Current Version | Previous Version | Graphics & Text | Print | Product List | Glossary On
Versions: 1 2 3 4 5 6 7 8 9 10 11 12 13 14 15 16 17 18 19 20 21 22 23 24 25 26 27 28 29 30 31 32 33 34 35 36 37 38 39 40 41 42 43 44 45 46 47 48 49 50
000
ASUS43 KFSD 300710
RWRSD

WEATHER ROUNDUP FOR SOUTH DAKOTA
NATIONAL WEATHER SERVICE SIOUX FALLS SD
200 AM CDT TUE AUG 30 2016

NOTE: "FAIR" INDICATES FEW OR NO CLOUDS BELOW 12,000 FEET WITH NO
SIGNIFICANT WEATHER AND/OR OBSTRUCTIONS TO VISIBILITY.


SDZ001>005-009-010-012>017-300800-
NORTHWEST AND NORTH CENTRAL SOUTH DAKOTA

CITY           SKY/WX    TMP DP  RH WIND       PRES   REMARKS
BUFFALO          N/A     62  51  67 E6        30.19S
FAITH            N/A     60  54  80 E6        30.25R
MOBRIDGE       CLEAR     64  55  72 E13       30.20F
$$

SDZ012>016-024>037-041>051-057-063-072>074-300800-
SOUTHWEST AND SOUTH CENTRAL SOUTH DAKOTA

CITY           SKY/WX    TMP DP  RH WIND       PRES   REMARKS
RAPID CTY ARPT CLEAR     62  59  90 CALM      30.26S
PIERRE         CLOUDY    67  59  75 NE10      30.17S
CUSTER         PTCLDY    59  56  89 N3        30.38F
ELLSWORTH AFB  CLEAR     68  62  81 CALM      30.26S
PHILIP         CLOUDY    67  64  90 NE9       30.20S
PINE RIDGE     CLEAR     59  58  96 CALM      30.24F
WINNER         FAIR      72  64  76 S8        30.18S
$$

SDZ004>011-016>023-039-040-300800-
NORTHEAST SOUTH DAKOTA

CITY           SKY/WX    TMP DP  RH WIND       PRES   REMARKS
ABERDEEN       CLEAR     60  56  86 NE7       30.21S
WATERTOWN      CLOUDY    70  65  84 N6        30.22R
BROOKINGS      PTCLDY    71  67  87 E3        30.19S
SISSETON         N/A     60  57  89 NW7       30.21R
$$

SDZ017-020-022-023-036>040-048>070-300800-
SOUTHEAST SOUTH DAKOTA

CITY           SKY/WX    TMP DP  RH WIND       PRES   REMARKS
SIOUX FALLS    PTCLDY    71  67  87 CALM      30.18R
HURON          PTCLDY    69  66  90 NE12      30.17R
CHAMBERLAIN    MOCLDY    71  67  89 E3        30.17S
MITCHELL       PTCLDY    73  68  84 S13       30.16S
YANKTON        CLOUDY    72  63  73 SW6       30.16S
$$

ABBREVIATIONS USED IN REMARKS
   TC - TEMPERATURE IN CELSIUS
  WCI - WIND CHILL INDEX
   HX - HEAT INDEX
  VSB - VISIBILITY





USA.gov is the U.S. government's official web portal to all federal, state and local government web resources and services.